EN

Hourly Weather Luhove

Today, 28 November, Saturday

Time Temperature Precipitation Wind Pressure Humidity
00:00 +2°C° 0.2 mm 2 mps 738 mmHg 96%
01:00 +2°C° 0.2 mm 2 mps 737 mmHg 96%
02:00 +2°C° 0 mm 2 mps 737 mmHg 97%
03:00 +2°C° 0 mm 2 mps 737 mmHg 96%
04:00 +1°C° 0 mm 3 mps 736 mmHg 95%
05:00 +1°C° 0 mm 3 mps 736 mmHg 94%
06:00 0°C° 0 mm 3 mps 736 mmHg 93%
07:00 0°C° 0 mm 3 mps 736 mmHg 93%
08:00 -1°C° 0 mm 3 mps 736 mmHg 93%
09:00 0°C° 0 mm 3 mps 736 mmHg 90%
10:00 0°C° 0 mm 3 mps 736 mmHg 87%
11:00 +1°C° 0 mm 3 mps 737 mmHg 84%
12:00 +1°C° 0 mm 3 mps 736 mmHg 83%
13:00 +1°C° 0 mm 3 mps 736 mmHg 82%
14:00 +2°C° 0 mm 2 mps 736 mmHg 80%
15:00 +2°C° 0 mm 2 mps 736 mmHg 81%
16:00 +2°C° 0 mm 2 mps 736 mmHg 82%
17:00 +1°C° 0 mm 2 mps 736 mmHg 82%
18:00 +1°C° 0 mm 2 mps 736 mmHg 84%
19:00 +1°C° 0 mm 2 mps 736 mmHg 86%
20:00 -1°C° 0 mm 2 mps 736 mmHg 88%
21:00 -1°C° 0 mm 2 mps 736 mmHg 88%
22:00 -1°C° 0 mm 2 mps 736 mmHg 88%
23:00 -1°C° 0 mm 2 mps 736 mmHg 89%

Tomorrow, 29 November, Sunday

Time Temperature Precipitation Wind Pressure Humidity
00:00 -2°C° 0 mm 2 mps 736 mmHg 90%
01:00 -2°C° 0 mm 2 mps 736 mmHg 91%
02:00 -2°C° 0 mm 2 mps 736 mmHg 92%
03:00 -2°C° 0 mm 2 mps 736 mmHg 92%
04:00 -2°C° 0 mm 2 mps 736 mmHg 92%
05:00 -2°C° 0 mm 2 mps 736 mmHg 93%
06:00 -2°C° 0 mm 2 mps 737 mmHg 91%
07:00 -2°C° 0 mm 2 mps 737 mmHg 90%
08:00 -2°C° 0 mm 2 mps 737 mmHg 89%
09:00 -2°C° 0 mm 2 mps 737 mmHg 84%
10:00 +1°C° 0 mm 1 mps 737 mmHg 79%
11:00 +1°C° 0 mm 1 mps 737 mmHg 73%
12:00 +2°C° 0 mm 1 mps 737 mmHg 73%
13:00 +2°C° 0 mm 1 mps 737 mmHg 73%
14:00 +2°C° 0 mm 1 mps 737 mmHg 73%
15:00 +2°C° 0.1 mm 1 mps 737 mmHg 79%
16:00 +1°C° 0.1 mm 1 mps 737 mmHg 85%
17:00 0°C° 0.1 mm 1 mps 737 mmHg 90%
18:00 0°C° 0 mm 1 mps 738 mmHg 92%
19:00 0°C° 0 mm 1 mps 738 mmHg 94%
20:00 0°C° 0 mm 1 mps 738 mmHg 95%
21:00 -1°C° 0 mm 1 mps 738 mmHg 96%
22:00 -1°C° 0 mm 1 mps 739 mmHg 96%
23:00 -1°C° 0 mm 1 mps 739 mmHg 96%

Day after tomorrow, 30 November, Monday

Time Temperature Precipitation Wind Pressure Humidity
00:00 -1°C° 0 mm 1 mps 739 mmHg 96%
01:00 -1°C° 0 mm 1 mps 739 mmHg 95%
02:00 -1°C° 0 mm 1 mps 739 mmHg 95%
03:00 -1°C° 0 mm 1 mps 739 mmHg 95%
04:00 -1°C° 0 mm 1 mps 739 mmHg 94%
05:00 -1°C° 0 mm 1 mps 739 mmHg 94%
06:00 -2°C° 0 mm 1 mps 740 mmHg 94%
07:00 -2°C° 0 mm 1 mps 740 mmHg 93%
08:00 -2°C° 0 mm 1 mps 740 mmHg 93%
09:00 -3°C° 0 mm 2 mps 741 mmHg 87%
10:00 -2°C° 0 mm 2 mps 741 mmHg 81%
11:00 -1°C° 0 mm 2 mps 741 mmHg 75%
12:00 -1°C° 0 mm 3 mps 741 mmHg 74%
13:00 -1°C° 0 mm 3 mps 741 mmHg 73%
14:00 -1°C° 0 mm 3 mps 741 mmHg 71%
15:00 -2°C° 0 mm 3 mps 742 mmHg 74%
16:00 -2°C° 0 mm 2 mps 742 mmHg 77%
17:00 -3°C° 0 mm 2 mps 742 mmHg 80%
18:00 -3°C° 0 mm 2 mps 742 mmHg 80%
19:00 -3°C° 0 mm 2 mps 742 mmHg 80%
20:00 -3°C° 0 mm 2 mps 743 mmHg 80%
21:00 -3°C° 0 mm 2 mps 743 mmHg 80%
22:00 -4°C° 0 mm 2 mps 743 mmHg 80%
23:00 -4°C° 0 mm 2 mps 743 mmHg 81%

1 December, Tuesday

Time Temperature Precipitation Wind Pressure Humidity
00:00 -4°C° 0 mm 2 mps 743 mmHg 81%
01:00 -2°C° 0 mm 1 mps 743 mmHg 81%
02:00 -2°C° 0 mm 1 mps 743 mmHg 82%
03:00 -2°C° 0 mm 1 mps 743 mmHg 82%
04:00 -2°C° 0 mm 1 mps 743 mmHg 82%
05:00 -3°C° 0 mm 1 mps 743 mmHg 82%
06:00 -3°C° 0 mm 1 mps 743 mmHg 83%
07:00 -3°C° 0 mm 1 mps 743 mmHg 84%
08:00 -3°C° 0 mm 1 mps 743 mmHg 85%
09:00 -2°C° 0 mm 1 mps 743 mmHg 80%
10:00 -1°C° 0 mm 1 mps 743 mmHg 76%
11:00 0°C° 0 mm 1 mps 743 mmHg 71%
12:00 0°C° 0 mm 1 mps 743 mmHg 68%
13:00 0°C° 0 mm 1 mps 743 mmHg 66%
14:00 +1°C° 0 mm 1 mps 743 mmHg 63%
15:00 -2°C° 0 mm 2 mps 743 mmHg 67%
16:00 -3°C° 0 mm 2 mps 742 mmHg 72%
17:00 -4°C° 0 mm 2 mps 742 mmHg 76%
18:00 -4°C° 0 mm 2 mps 742 mmHg 77%
19:00 -4°C° 0 mm 2 mps 743 mmHg 79%
20:00 -4°C° 0 mm 2 mps 743 mmHg 80%
21:00 -4°C° 0 mm 2 mps 743 mmHg 81%
22:00 -5°C° 0 mm 2 mps 743 mmHg 82%
23:00 -5°C° 0 mm 2 mps 743 mmHg 83%

2 December, Wednesday

Time Temperature Precipitation Wind Pressure Humidity
00:00 -5°C° 0 mm 2 mps 743 mmHg 83%
01:00 -5°C° 0 mm 2 mps 742 mmHg 84%
02:00 -5°C° 0 mm 2 mps 742 mmHg 85%
03:00 -5°C° 0 mm 2 mps 742 mmHg 86%
04:00 -6°C° 0 mm 2 mps 742 mmHg 87%
05:00 -6°C° 0 mm 2 mps 742 mmHg 88%
06:00 -6°C° 0 mm 2 mps 742 mmHg 89%
07:00 -6°C° 0 mm 2 mps 742 mmHg 91%
08:00 -6°C° 0 mm 2 mps 742 mmHg 93%
09:00 -5°C° 0 mm 2 mps 742 mmHg 89%
10:00 -4°C° 0 mm 2 mps 742 mmHg 86%
11:00 -3°C° 0 mm 2 mps 742 mmHg 82%
12:00 -2°C° 0 mm 2 mps 742 mmHg 82%
13:00 -2°C° 0 mm 2 mps 742 mmHg 81%
14:00 -1°C° 0 mm 2 mps 741 mmHg 80%
15:00 -1°C° 0 mm 2 mps 741 mmHg 83%
16:00 -2°C° 0 mm 2 mps 741 mmHg 85%
17:00 -2°C° 0 mm 2 mps 741 mmHg 88%
18:00 -2°C° 0 mm 2 mps 742 mmHg 89%
19:00 -2°C° 0 mm 2 mps 742 mmHg 89%
20:00 -2°C° 0 mm 2 mps 742 mmHg 90%
21:00 -2°C° 0 mm 2 mps 742 mmHg 91%
22:00 -2°C° 0 mm 2 mps 742 mmHg 92%
23:00 0°C° 0 mm 1 mps 742 mmHg 92%

3 December, Thursday

Time Temperature Precipitation Wind Pressure Humidity
00:00 -2°C° 0 mm 2 mps 742 mmHg 93%
01:00 -2°C° 0 mm 2 mps 741 mmHg 94%
02:00 -2°C° 0 mm 2 mps 741 mmHg 95%
03:00 -2°C° 0 mm 2 mps 741 mmHg 95%
04:00 -2°C° 0 mm 2 mps 741 mmHg 95%
05:00 -2°C° 0 mm 2 mps 741 mmHg 95%
06:00 -2°C° 0 mm 2 mps 741 mmHg 95%
07:00 -2°C° 0 mm 3 mps 741 mmHg 94%
08:00 -2°C° 0 mm 3 mps 741 mmHg 94%
09:00 -2°C° 0 mm 3 mps 741 mmHg 91%
10:00 -1°C° 0 mm 3 mps 741 mmHg 88%
11:00 -1°C° 0 mm 3 mps 741 mmHg 85%
12:00 -1°C° 0 mm 3 mps 740 mmHg 83%
13:00 0°C° 0 mm 3 mps 740 mmHg 81%
14:00 0°C° 0 mm 3 mps 740 mmHg 78%
15:00 -1°C° 0 mm 3 mps 739 mmHg 81%
16:00 -1°C° 0 mm 2 mps 739 mmHg 84%
17:00 -1°C° 0 mm 2 mps 739 mmHg 87%
18:00 -2°C° 0 mm 2 mps 739 mmHg 89%
19:00 -2°C° 0 mm 2 mps 739 mmHg 90%
20:00 -3°C° 0 mm 2 mps 739 mmHg 92%
21:00 -3°C° 0 mm 2 mps 738 mmHg 92%
22:00 -4°C° 0 mm 3 mps 738 mmHg 93%
23:00 -4°C° 0 mm 3 mps 738 mmHg 94%
Show more